Weather History for Monroe, NC

Change the Weather History Date:

Wednesday, January 9, 2013

  Actual Average (KCLT) Record (KCLT)
Temperature  
Mean Temperature 55 °F 40 °F  
Max Temperature 69 °F 50 °F 72 °F (2008)
Min Temperature 41 °F 29 °F 4 °F (1970)
Degree Days  
Heating Degree Days 10 25  
Month to date heating degree days 225  
Since 1 July heating degree days 1562  
Cooling Degree Days 0 0  
Month to date cooling degree days 0  
Year to date cooling degree days 0  
Growing Degree Days 5 (Base 50)    
Moisture  
Dew Point 44 °F    
Average Humidity 70    
Maximum Humidity 89    
Minimum Humidity 45    
Precipitation  
Precipitation 0.00 in 0.11 in 1.91 in (1921)
Month to date precipitation 1.00  
Year to date precipitation 1.00  
Snow  
Snow 0.00 in 0.10 in 2.40 in (1883)
Month to date snowfall 0.5  
Since 1 July snowfall 0.9  
Snow Depth -    
Sea Level Pressure  
Sea Level Pressure 30.43 in    
Wind  
Wind Speed 2 mph (WNW)    
Max Wind Speed 7 mph    
Max Gust Speed -    
Visibility 10 miles    
Events      
T = Trace of Precipitation, MM = Missing Value Source: NWS Daily Summary

Daily Weather History Graph

Daily Weather History Graph

Search for Another Location

Airport:

Trip Planner

Search our weather history database for the weather conditions in past years. The results will help you decide how hot, cold, wet, or windy it might be!

Date:

Astronomy

Jan. 09, 2013 Rise Set
Actual Time 7:31 AM EST 5:28 PM EST
Civil Twilight 7:03 AM EST 5:56 PM EST
Nautical Twilight 6:31 AM EST 6:27 PM EST
Astronomical Twilight 6:01 AM EST 6:58 PM EST
Moon 5:08 AM EST (1/9) 3:29 PM EST (1/9)
Length of Visible Light 10h 53m
Length of Day
9h 57m
Waning Crescent, 6% of the Moon is Illuminated
Jan 9
Waning Crescent
Jan 11
New
Jan 18
First Quarter
Jan 26
Full
Feb 3
Last Quarter

Hourly Weather History & Observations

Time (EST) Temp. Windchill Dew Point Humidity Pressure Visibility Wind Dir Wind Speed Gust Speed Precip Events Conditions
12:53 AM 46.0 °F 43.1 °F 41.0 °F 83% 30.40 in 10.0 mi NW 5.8 mph - N/A   Clear
1:53 AM 46.0 °F - 41.0 °F 83% 30.41 in 10.0 mi Calm Calm - N/A   Clear
2:53 AM 44.1 °F - 39.9 °F 85% 30.43 in 10.0 mi Calm Calm - N/A   Partly Cloudy
3:53 AM 44.1 °F 42.5 °F 39.0 °F 82% 30.42 in 10.0 mi NE 3.5 mph - N/A   Clear
4:53 AM 42.1 °F - 37.9 °F 85% 30.42 in 10.0 mi Calm Calm - N/A   Clear
5:53 AM 43.0 °F - 37.9 °F 82% 30.42 in 10.0 mi Calm Calm - N/A   Clear
6:53 AM 41.0 °F - 37.9 °F 89% 30.43 in 9.0 mi Calm Calm - N/A   Clear
7:53 AM 43.0 °F 41.3 °F 37.9 °F 82% 30.45 in 8.0 mi North 3.5 mph - N/A   Clear
8:53 AM 48.9 °F - 39.9 °F 71% 30.47 in 10.0 mi Calm Calm - N/A   Clear
10:53 AM 59.0 °F - 44.1 °F 58% 30.49 in 10.0 mi Variable 3.5 mph - N/A   Scattered Clouds
11:53 AM 64.0 °F - 48.0 °F 56% 30.43 in 10.0 mi Variable 5.8 mph - N/A   Partly Cloudy
12:53 PM 69.1 °F - 46.9 °F 45% 30.40 in 10.0 mi SW 6.9 mph - N/A   Clear
1:53 PM 69.1 °F - 46.9 °F 45% 30.39 in 10.0 mi West 3.5 mph - N/A   Clear
2:53 PM 68.0 °F - 46.9 °F 47% 30.40 in 10.0 mi WSW 4.6 mph - N/A   Clear
3:53 PM 66.9 °F - 48.0 °F 51% 30.40 in 10.0 mi WNW 3.5 mph - N/A   Clear
4:53 PM 64.0 °F - 48.9 °F 58% 30.41 in 10.0 mi Calm Calm - N/A   Clear
5:53 PM 63.0 °F - 48.9 °F 60% 30.43 in 10.0 mi Calm Calm - N/A   Clear
6:53 PM 60.1 °F - 48.0 °F 64% 30.43 in 10.0 mi Calm Calm - N/A   Clear
7:53 PM 57.9 °F - 48.0 °F 70% 30.42 in 10.0 mi Calm Calm - N/A   Clear
8:53 PM 54.0 °F - 48.0 °F 80% 30.42 in 10.0 mi Calm Calm - N/A   Clear
9:53 PM 57.0 °F - 48.0 °F 72% 30.44 in 10.0 mi Calm Calm - N/A   Clear
10:53 PM 55.0 °F - 48.0 °F 77% 30.45 in 10.0 mi Calm Calm - N/A   Clear
11:53 PM 53.1 °F - 48.0 °F 83% 30.47 in 10.0 mi Calm Calm - N/A   Clear